Location: Cranford
(40.6578°N, 74.3024°W)
Time: 09:27:44
(UTC+00:00)

STARLINK-5186 - Pass Details

Date: 14 June 2023
Orbit: 539 x 541 km, 53.2° (Epoch: 02 October)

Event Time Altitude Azimuth Distance (km) Brightness Sun altitude
Rises 04:12:49 0° 295° (WNW) 2,703 ? -25.3°
Reaches altitude 10° 04:15:58 10° 320° (NW) 1,806 ? -25.4°
Maximum altitude 04:18:15 14° 354° (N) 1,542 ? -25.4°
Drops below altitude 10° 04:20:32 10° 28° (NNE) 1,802 ? -25.5°
Sets 04:23:40 0° 54° (NE) 2,693 ? -25.6°
